TimeEDT,TemperatureF,Dew PointF,Humidity,Sea Level PressureIn,VisibilityMPH,Wind Direction,Wind SpeedMPH,Gust SpeedMPH,PrecipitationIn,Events,Conditions,WindDirDegrees,DateUTC
12:52 AM,39.9,28.0,63,30.01,10.0,WNW,11.5,-,N/A,,Partly Cloudy,290,2013-03-27 04:52:00
1:52 AM,39.0,27.0,62,30.02,10.0,Variable,5.8,-,N/A,,Partly Cloudy,0,2013-03-27 05:52:00
2:52 AM,37.9,27.0,65,30.02,10.0,Variable,4.6,-,N/A,,Overcast,0,2013-03-27 06:52:00
3:52 AM,36.0,27.0,70,30.02,10.0,West,8.1,-,N/A,,Partly Cloudy,270,2013-03-27 07:52:00
4:52 AM,37.0,27.0,67,30.02,10.0,NW,10.4,-,N/A,,Clear,310,2013-03-27 08:52:00
5:52 AM,36.0,27.0,70,30.03,10.0,WNW,11.5,-,N/A,,Partly Cloudy,290,2013-03-27 09:52:00
6:52 AM,36.0,26.1,67,30.05,10.0,WNW,8.1,-,N/A,,Partly Cloudy,300,2013-03-27 10:52:00
7:52 AM,37.0,26.1,65,30.06,10.0,WNW,10.4,-,N/A,,Partly Cloudy,300,2013-03-27 11:52:00
8:52 AM,39.9,26.1,58,30.07,10.0,NW,17.3,-,N/A,,Partly Cloudy,310,2013-03-27 12:52:00
9:52 AM,43.0,28.0,56,30.09,10.0,WNW,18.4,29.9,N/A,,Scattered Clouds,300,2013-03-27 13:52:00
10:52 AM,45.0,27.0,49,30.09,10.0,NW,18.4,29.9,N/A,,Scattered Clouds,310,2013-03-27 14:52:00
11:52 AM,46.0,27.0,47,30.08,10.0,NW,16.1,-,N/A,,Mostly Cloudy,320,2013-03-27 15:52:00
12:52 PM,46.9,27.0,46,30.08,10.0,NW,16.1,26.5,N/A,,Mostly Cloudy,310,2013-03-27 16:52:00
1:52 PM,46.0,26.1,46,30.07,10.0,WNW,17.3,-,N/A,,Mostly Cloudy,290,2013-03-27 17:52:00
2:52 PM,48.0,28.9,48,30.07,10.0,WNW,25.3,33.4,N/A,,Mostly Cloudy,300,2013-03-27 18:52:00
3:52 PM,46.9,28.9,50,30.06,10.0,West,20.7,36.8,0.00,,Scattered Clouds,270,2013-03-27 19:52:00
4:52 PM,48.9,26.1,41,30.06,10.0,WNW,21.9,29.9,N/A,,Scattered Clouds,290,2013-03-27 20:52:00
5:52 PM,48.0,25.0,41,30.06,10.0,West,20.7,27.6,N/A,,Mostly Cloudy,280,2013-03-27 21:52:00
6:52 PM,45.0,25.0,46,30.09,10.0,West,16.1,20.7,N/A,,Mostly Cloudy,280,2013-03-27 22:52:00
7:52 PM,43.0,25.0,49,30.11,10.0,West,10.4,-,N/A,,Scattered Clouds,280,2013-03-27 23:52:00
8:52 PM,41.0,25.0,53,30.12,10.0,West,11.5,-,N/A,,Scattered Clouds,270,2013-03-28 00:52:00
9:52 PM,39.9,26.1,58,30.13,10.0,WSW,9.2,-,N/A,,Clear,250,2013-03-28 01:52:00
10:52 PM,37.9,26.1,62,30.14,10.0,WSW,9.2,-,N/A,,Scattered Clouds,250,2013-03-28 02:52:00
11:52 PM,37.9,26.1,62,30.14,10.0,WNW,8.1,-,N/A,,Scattered Clouds,300,2013-03-28 03:52:00